Flag for China Weather past 2 weeks in Suzhou, Jiangsu, China

Now
88 °F

Passing clouds.


Feels Like: 98 °F
Forecast: 74 / 86 °F
Wind: 10 mph from Southeast

Location: Shanghai Hongqiao Airport

Current Time: Aug 23, 2014 at 2:35:07 PM

Latest Report: Aug 23, 2014 at 2:00 PM


Visibility: N/A

Pressure: 29.71 "Hg

Humidity: 66%

Dew point: 75 °F

Location of SuzhouLocation

Historic Weather in Suzhou — Graph

°F

Suzhou temperature yesterday

Maximum temperature yesterday: 88 °F (at 12:00 PM)
Minimum temperature yesterday: 75 °F (at 2:00 AM)
Average temperature yesterday: 81 °F

Past Weeks' High & Low Weather Summary

 TemperatureHumidityPressure
High90 °F (Aug 13, 1:30 PM)100% (Aug 17, 2:00 AM)29.89 "Hg (Aug 17, 2:00 AM)
Low68 °F (Aug 21, 4:30 AM)52% (Aug 11, 3:00 PM)29.59 "Hg (Aug 8, 1:00 PM)
Average78 °F84%29.74 "Hg
* Reported Aug 8 1:00 PM — Aug 23 1:30 PM, Suzhou, Weather by CustomWeather, © 2014

Note: Actual official high and low records may vary slightly from our data, if they occured in-between our weather recording intervals... More about our weather records

Advertising

Suzhou weather history for previous 24 hours

 ConditionsComfort  
Time TempWeatherWind HumidityBarometerVisibility
1:30 PM
Aug 23
90 °FPassing clouds.8 mph67%29.74 "HgN/A
1:00 PM88 °FScattered clouds.8 mph66%29.71 "HgN/A
12:30 PM86 °FPartly sunny.15 mph70%29.74 "HgN/A
12:00 PM90 °FPartly sunny.3 mph67%29.74 "HgN/A
11:30 AM90 °FScattered clouds.6 mph67%29.77 "HgN/A
11:00 AM90 °FPassing clouds.6 mph67%29.77 "HgN/A
10:30 AM88 °FPassing clouds.6 mph70%29.77 "HgN/A
10:00 AM86 °FScattered clouds.6 mph79%29.77 "Hg4 mi
9:30 AM82 °FPassing clouds.6 mph84%29.80 "Hg4 mi
8:30 AM81 °FPartly sunny.3 mph94%29.80 "Hg4 mi
8:00 AM81 °FPartly sunny.1 mph89%29.80 "Hg4 mi
7:30 AM81 °FPartly sunny.3 mph89%29.80 "Hg4 mi
7:00 AM81 °FScattered clouds.1 mph89%29.77 "Hg4 mi
6:30 AM79 °FScattered clouds.1 mph94%29.77 "Hg4 mi
6:00 AM79 °FClear.3 mph94%29.77 "Hg4 mi
5:30 AM79 °FClear.3 mph94%29.77 "Hg4 mi
5:00 AM79 °FClear.6 mph94%29.77 "Hg4 mi
4:30 AM79 °FClear.3 mph94%29.77 "Hg4 mi
4:00 AM79 °FClear.3 mph94%29.77 "Hg4 mi
3:30 AM79 °FClear.6 mph94%29.77 "Hg10 mi
3:00 AM81 °FClear.3 mph89%29.77 "Hg10 mi
2:30 AM81 °FPassing clouds.3 mph89%29.77 "HgN/A
2:00 AM79 °FClear.3 mph94%29.77 "Hg10 mi
1:30 AM81 °FClear.6 mph89%29.77 "Hg10 mi
1:00 AM79 °FPassing clouds.6 mph94%29.80 "HgN/A
12:30 AM81 °FPassing clouds.6 mph89%29.80 "HgN/A
12:00 AM81 °FPassing clouds.6 mph89%29.80 "HgN/A
11:30 PM
Aug 22
81 °FPassing clouds.3 mph89%29.80 "HgN/A
11:00 PM81 °FPassing clouds.3 mph89%29.80 "HgN/A
10:30 PM81 °FClear.3 mph89%29.80 "Hg10 mi
10:00 PM81 °FPassing clouds.3 mph84%29.80 "HgN/A
9:30 PM81 °FClear.8 mph89%29.80 "Hg10 mi
9:00 PM81 °FPassing clouds.6 mph84%29.80 "HgN/A
8:30 PM81 °FPassing clouds.8 mph84%29.80 "HgN/A
8:00 PM81 °FPassing clouds.8 mph84%29.80 "HgN/A
7:30 PM82 °FPassing clouds.10 mph79%29.80 "HgN/A
7:00 PM82 °FPassing clouds.10 mph79%29.80 "HgN/A
6:30 PM82 °FPassing clouds.8 mph79%29.80 "HgN/A
6:00 PM82 °FPassing clouds.10 mph79%29.77 "HgN/A
5:30 PM84 °FScattered clouds.10 mph74%29.77 "HgN/A
5:00 PM84 °FPassing clouds.13 mph74%29.77 "HgN/A
4:30 PM86 °FPassing clouds.10 mph70%29.77 "HgN/A
4:00 PM86 °FPassing clouds.10 mph70%29.77 "HgN/A
3:30 PM86 °FPassing clouds.13 mph70%29.77 "HgN/A
3:00 PM88 °FPassing clouds.10 mph66%29.77 "HgN/A
2:30 PM86 °FPassing clouds.10 mph75%29.80 "HgN/A
2:00 PM88 °FScattered clouds.8 mph66%29.80 "HgN/A
Weather by CustomWeather, © 2014

See weather overviewHow to use our weather pages